Flag for Switzerland Weather past 2 weeks in Sarnen, Obwalden, Switzerland

Now
25 °F

Chilly.


Feels Like: 25 °F
Forecast: 12 / 31 °F
Wind: 2 mph from West

Location: Giswil

Current Time: Dec 29, 2014 at 3:33:14 PM

Latest Report: Dec 29, 2014 at 2:00 PM


Visibility: N/A

Pressure: 30.59 "Hg

Humidity: 88%

Dew point: 22 °F

Location of SarnenLocation

Historic Weather in Sarnen — Graph

°F

Sarnen temperature yesterday

Maximum temperature yesterday: 35 °F (at 1:00 AM)
Minimum temperature yesterday: 27 °F (at 11:00 PM)
Average temperature yesterday: 31 °F

Past Weeks' High & Low Weather Summary

 TemperatureHumidityPressure
High50 °F (Dec 19, 10:00 PM)100% (Dec 14, 5:00 PM)30.70 "Hg (Dec 14, 5:00 PM)
Low10 °F (Dec 29, 10:00 AM)61% (Dec 21, 3:00 AM)29.59 "Hg (Dec 27, 4:00 PM)
Average36 °F95%30.26 "Hg
* Reported Dec 14 2:00 PM — Dec 29 2:00 PM, Sarnen, Weather by CustomWeather, © 2014

Note: Actual official high and low records may vary slightly from our data, if they occured in-between our weather recording intervals... More about our weather records

Advertising

Sarnen weather history for previous 24 hours

 ConditionsComfort  
Time TempWeatherWind HumidityBarometerVisibility
2:00 PM
Dec 29
25 °FChilly.2 mph88%30.59 "HgN/A
1:00 PM26 °FChilly.6 mph79%30.59 "HgN/A
12:00 PM23 °FCold.2 mph82%30.60 "HgN/A
11:00 AM18 °FCold.1 mph98%30.64 "HgN/A
10:00 AM10 °FCold.3 mph95%30.70 "HgN/A
9:00 AM13 °FCold.1 mph98%30.67 "HgN/A
8:00 AM15 °FCold.2 mph98%30.67 "HgN/A
7:00 AM13 °FCold.3 mph99%30.64 "HgN/A
6:00 AM22 °FCold.1 mph83%30.59 "HgN/A
5:00 AM23 °FCold.3 mph81%30.59 "HgN/A
4:00 AM23 °FCold.5 mph82%30.57 "HgN/A
3:00 AM23 °FCold.6 mph81%30.55 "HgN/A
2:00 AM24 °FCold.5 mph82%30.51 "HgN/A
1:00 AM25 °FChilly.10 mph84%30.49 "HgN/A
12:00 AM26 °FChilly.8 mph86%30.45 "HgN/A
11:00 PM
Dec 28
27 °FChilly.8 mph86%30.42 "HgN/A
10:00 PM28 °FChilly.8 mph88%30.37 "HgN/A
9:00 PM29 °FChilly.8 mph88%30.34 "HgN/A
8:00 PM29 °FChilly.9 mph89%30.30 "HgN/A
7:00 PM28 °FChilly.10 mph96%30.26 "HgN/A
6:00 PM28 °FChilly.8 mph91%30.21 "HgN/A
5:00 PM28 °FChilly.9 mph91%30.17 "HgN/A
4:00 PM29 °FChilly.9 mph89%30.12 "HgN/A
3:00 PM30 °FChilly.9 mph90%30.06 "HgN/A
Weather by CustomWeather, © 2014

See weather overviewHow to use our weather pages